Location: Gleizolles
(44.4833°N, 6.7667°E)
Time: 13:09:26
(UTC+00:00)

A-11 Canister half - Pass Details

Date: 21 June 2024
Orbit: 1515 x 1684 km, 47.2° (Epoch: 24 July)

Event Time Altitude Azimuth Distance (km) Brightness Sun altitude
Rises 23:35:29 0° 294° (WNW) 4,862 11.9 -22.1°
Reaches altitude 10° 23:38:44 10° 290° (WNW) 3,851 11.3 -22.1°
Maximum altitude 23:48:04 52° 218° (SW) 1,893 9.1 -22.0°
Enters shadow 23:52:53 29° 158° (SSE) 2,548 9.6 -22.0°
